Tracking 19792 objects as of 17-Jul-2019
HD Live streaming from Space Station
objects crossing your sky now

FENGYUN 1C DEB

Track FENGYUN 1C DEB now!
10-day predictions


NORAD ID: 30637
Int'l Code: 1999-025ANU
Perigee: 621.1 km
Apogee: 743.1 km
Inclination: 98.9 °
Period: 98.2 minutes
Semi major axis: 7053 km
RCS: 0.039 m2 (small)
Launch date: May 10, 1999
Source: People's Republic of China (PRC)
Launch site: Taiyaun Space Center, China (TSC)

Note: This is SATELLITE DEBRIS
aabbcc
Your satellite tracking list
Your tracking list is empty




NASA's NSSDC Master Catalog

Two Line Element Set (TLE):
1 30637U 99025ANU 19197.15028868  .00000719  00000-0  13623-3 0  9994
2 30637  98.9394 166.0031 0086501 307.6536 181.5370 14.65661335658194
Source of the keplerian elements: AFSPC